Regional Weather Roundup
Issued by NWS

Home | Current Version | Previous Version | Graphics & Text | Print | Product List | Glossary On
Versions: 1 2 3 4 5 6 7 8 9 10 11 12 13 14 15 16 17 18 19 20 21 22 23 24 25 26 27
000
ASUS45 KSLC 172210
RWRUT

UTAH REGIONAL WEATHER ROUNDUP
NATIONAL WEATHER SERVICE SALT LAKE CITY UT
400 PM MDT THU AUG 17 2017

UTZ001>011-023>025-172300-

NORTHERN UTAH

CITY           SKY/WX    TMP DP  RH WIND       PRES   REMARKS
BRIGHAM CITY   SUNNY     87  31  13 S9        30.11F
HILL AFB       SUNNY     85  38  19 CALM      30.15F
LOGAN          SUNNY     87  39  18 CALM      30.10F
OGDEN          SUNNY     87  36  16 W9        30.11F
SALT LAKE CITY MOSUNNY   91  40  16 N15G25    30.09F
TOOELE VALLEY  MOSUNNY   86  46  25 N16       30.11S
WENDOVER       SUNNY     92  38  15 SE15      30.08F
HEBER CITY     MOSUNNY   88  32  13 SW9G17    30.17F
WEST JORDAN    MOSUNNY   87  53  31 NW8G17    30.13S

$$

UTZ011>015-024>027-172300-

CENTRAL/NORTHEAST UTAH

CITY           SKY/WX    TMP DP  RH WIND       PRES   REMARKS
PROVO AIRPORT  MOSUNNY   90  39  16 VRB3      30.11F
MOAB/CANYONLAN SUNNY     92  28  10 SW13G22   30.08F
DELTA          SUNNY     88  30  12 CALM      30.13F
PRICE          MOSUNNY   85  34  16 VRB3      30.19F
ROOSEVELT      SUNNY     86  36  16 SE3       30.15F
VERNAL         SUNNY     87  38  17 N8        30.15F

$$

UTZ013>016-019>022-027-172300-

SOUTHERN UTAH

CITY           SKY/WX    TMP DP  RH WIND       PRES   REMARKS
BRYCE CANYON   PTSUNNY   75  35  23 W6        30.35F
CEDAR CITY     MOSUNNY   86  32  14 CALM      30.18F
MILFORD        SUNNY     88  35  15 SE3       30.13F
ST GEORGE      CLEAR     96  36  12 N5        29.99F HX  91
HANKSVILLE     MOSUNNY   93  32  11 W5G17     30.09F
BLANDING       SUNNY     85  30  13 SW7       30.27F

$$

REGIONAL REPORTS     COLORADO/ARIZONA

CITY           SKY/WX    TMP DP  RH WIND       PRES   REMARKS
CRAIG, CO      SUNNY     84  28  13 W15G23    30.20F
GRAND JUNCTION SUNNY     90  32  12 NW14G23   30.11F
RIFLE, CO      MOSUNNY   84  33  16 N8        30.16F
MONTROSE, CO   SUNNY     83  33  16 N8        30.19F
CORTEZ, CO     MOSUNNY   84  27  12 CALM      30.21F
COLORADO CITY    N/A     91  36  14 W7        30.18S
PAGE, AZ       SUNNY     93  33  12 N8        30.08F
GRAND CANYON   MOSUNNY   81  29  15 SW5       30.29F
KINGMAN, AZ    SUNNY     93  40  15 NW8       30.06F
FLAGSTAFF, AZ  SUNNY     75  26  16 S9        30.34F

$$

REGIONAL REPORTS    NEVADA/IDAHO/WYOMING

CITY           SKY/WX    TMP DP  RH WIND       PRES   REMARKS
LAS VEGAS, NV  MOSUNNY  100  41  13 NE8       29.95F HX  95
ELY, NY        MOSUNNY   82  33  17 VRB5      30.23F
ELKO, NV       SUNNY     88  21   8 SW14G21   30.16F
POCATELLO, ID  SUNNY     86  35  16 W15G23    30.14F
BURLEY, ID     SUNNY     81  41  24 W15G25    30.11F
FORT BRIDGER,    N/A     82  29  14 W22G28    30.29S
EVANSTON, WY   MOSUNNY   79  35  20 W18G31    30.29S
ROCK SPRINGS,  CLOUDY    80  30  16 W16G28    30.21F
KEMMERER, WY     N/A     77  32  19 W22G30    30.28S

$$




USA.gov is the U.S. government's official web portal to all federal, state and local government web resources and services.